This demonstration page uses our WeatherBlox Daily Observations layout. Learn more.

Left ArrowRight Arrow

41.86663, -103.66717

Hourly Observations for July 14, 2018

Temp ( °F °C ) Dew Point ( °F °C ) Humidity (%) Winds ( mph kmh ) Pressure ( in mb ) Visibility ( mi km ) Precip ( " mm )
12:53 am 00:53 Partly Cloudy 67 19.4 66 18.9 97 97 ESE 7 11 30.04 1017 10 16.0934 N/A
1:53 am 01:53 Clear 67 19.4 66 18.9 97 97 ESE 9 15 30.02 1017 10 16.0934 N/A
2:53 am 02:53 Clear 66 18.9 66 18.9 100 100 ESE 7 11 30.01 1016 10 16.0934 N/A
3:53 am 03:53 Clear 64 17.8 64 17.8 100 100 E 8 13 30 1016 10 16.0934 N/A
4:53 am 04:53 Clear 64 17.8 64 17.8 100 100 undefined N/A 29.99 1016 9 14.48406 N/A
5:53 am 05:53 Sunny with Mist and Fog 65 18.3 65 18.3 100 100 E 9 15 29.99 1016 5 8.0467 N/A
6:53 am 06:53 Sunny with Mist and Fog 67 19.4 67 19.4 100 100 ESE 13 20 29.99 1016 6 9.65604 N/A
7:53 am 07:53 Sunny 72 22.2 68 20 87 87 SE 10 17 30 1016 10 16.0934 N/A
8:53 am 08:53 Mostly Sunny 76 24.4 68 20 77 77 SE 13 20 29.99 1016 10 16.0934 N/A
9:53 am 09:53 Sunny 79 26.1 69 20.6 72 72 SE 10 17 29.99 1016 10 16.0934 N/A
10:53 am 10:53 Sunny 83 28.3 68 20 61 61 SE 9 15 29.97 1015 10 16.0934 N/A
11:53 am 11:53 Sunny 86 30 69 20.6 57 57 ESE 14 22 29.95 1014 10 16.0934 N/A
12:53 pm 12:53 Sunny 92 33.3 64 17.8 40 40 SE 14 22 29.93 1014 10 16.0934 N/A
1:53 pm 13:53 Sunny 93 33.9 62 16.7 36 36 ESE 16 26 29.91 1013 10 16.0934 N/A
2:53 pm 14:53 Sunny 94 34.4 58 14.4 30 30 SE 18 30 29.89 1012 10 16.0934 N/A
3:53 pm 15:53 Sunny 95 35 58 14.4 29 29 ESE 18 30 29.88 1012 10 16.0934 N/A
4:53 pm 16:53 Sunny 92 33.3 67 19.4 44 44 ESE 22 35 29.87 1011 10 16.0934 N/A
5:53 pm 17:53 Sunny 90 32.2 65 18.3 44 44 ESE 20 31 29.86 1011 10 16.0934 N/A
6:53 pm 18:53 Sunny 87 30.6 64 17.8 46 46 ESE 18 30 29.86 1011 10 16.0934 N/A
7:53 pm 19:53 Sunny 83 28.3 65 18.3 55 55 ESE 14 22 29.87 1012 10 16.0934 N/A
8:53 pm 20:53 Clear 78 25.6 65 18.3 64 64 undefined N/A 29.89 1012 10 16.0934 N/A
9:53 pm 21:53 Clear 75 23.9 65 18.3 71 71 ESE 10 17 29.93 1013 10 16.0934 N/A
10:53 pm 22:53 Clear 73 22.8 65 18.3 76 76 E 10 17 29.93 1014 10 16.0934 N/A
11:53 pm 23:53 Clear 71 21.7 64 17.8 79 79 ESE 9 15 29.93 1014 10 16.0934 N/A

Powered by AerisWeather